Location: Noyers
(47.2770°N, 1.4032°E)
Time: 22:52:49
(UTC+00:00)

Cosmos 1428 Rocket - Pass Details

Date: 15 May 2026
Orbit: 946 x 987 km, 82.9° (Epoch: 6 June)

Event Time Altitude Azimuth Distance (km) Brightness Sun altitude
Rises 21:29:45 0° 352° (N) 3,680 8.7 -16.5°
Reaches altitude 10° 21:32:18 10° 354° (N) 2,722 7.8 -16.8°
Maximum altitude 21:38:32 74° 80° (E) 1,001 4.5 -17.3°
Enters shadow 21:42:00 27° 161° (SSE) 1,731 5.2 -17.6°
